User: anonymous   Login
Location: Unspecified
(0.0000°N, 0.0000°E)
Time: 01:10:21
(UTC+00:00)
Language:

STARLINK-30223 - Orbit

View from above orbital plane
View from above orbital plane
View from above satellite
View from above satellite

Ground track
Ground track

The orbit is defined by the following mean orbital elements,

1 57603U          26145.35190278 +.00000000 +00000-0 +11910-2 0 00001
2 57603  43.0009  21.1588 0005332 232.7440 127.2919 15.09710925    09
Epoch (UTC): 25 May 2026 08:26:44
Eccentricity: 0.0005332
inclination: 43.0009°
perigee height: 533 km
apogee height: 541 km
right ascension of ascending node: 21.1588°
argument of perigee: 232.7440°
revolutions per day: 15.09710925
mean anomaly at epoch: 127.2919°

The dashed part of the orbit path shows where the satellite is in the earth's shadow,  

DLR